NOAA 16 DEB

Satellite information

Favourite Embed

Satellite Type and Status

DEBRISIN ORBIT

Key statistics

Satellite NOAA 16 DEB at a glance.

Uptime

9055

Days in orbit

Revolutions

≈ 14.3

Per day

Orbit

SSO

Sun Synchronous Orbit

Inclination

98.7

Latest

Satellite identification and parameters

Extended collection of information and parameters for NOAA 16 DEB.

Object identification

Identified? True

Debris? True

Object name: NOAA 16 DEB

International designator: 2000-055JV

Object number (NORAD): 41376

Object ID (CCSDS): 41376

Country: UNITED STATES OF AMERICA (US)

Current information (Y/N): Y

RCS size: SMALL

Orbital parameters

Period: 100.684 minutes

Inclination: 98.7386 deg

SMA: 7169.164 km

Apoapsis: 803.495 km

Periapsis: 778.563 km

RAAN: 279.1586 deg

Eccentricy: 0.0017389

Argument of periapsis: 206.6179 deg

Mean anomaly: 153.4112 deg

Mean motion: 14.30210587 rev/day

Mean motion (dot): 0.0000312 rev/day2

B* drag term: 0.0012196 1/REarth

Two-line elements (TLE)

Creation date: July 6, 2025, 10:16 p.m.

Reference frame: TEME

Reference center: EARTH

Epoch: July 6, 2025, 5:18 p.m. UTC

TLE line 0: 0 NOAA 16 DEB

TLE line 1: 1 41376U 00055JV 25187.72093936 .00003120 00000-0 12196-2 0 9990

TLE line 2: 2 41376 98.7386 279.1586 0017389 206.6179 153.4112 14.30210587490079

Live tracking on map

Real-time ground track for satellite NOAA 16 DEB.

In-orbit conjunctions

A list of the most updated potential collisions computed for object NOAA 16 DEB.

Target Orbit TCA Probability of collision Miss distance Type
STELLA SSO 2025-06-18 04:46:31 0.0002425192 709.0 (m) PAYLOAD
SL-8 R/B LEO 2025-04-30 18:05:43 0.0001095252 820.0 (m) ROCKET BODY
COSMOS 1275 DEB LEO 2025-04-15 10:41:31 0.0001421648 79.0 (m) DEBRIS
COSMOS 1275 DEB LEO 2024-09-26 22:47:51 0.001534176 304.0 (m) DEBRIS
COSMOS 2251 DEB LEO 2024-08-07 02:09:52 0.001008974 23.0 (m) DEBRIS

Associated space launch

The NOAA K, L and M POES satellites begin the fifth generation of improved environmental monitoring in support of NOAA missions. The instrument payload has significant improvements and additions/deletions. The instrument changes have effected the spacecraft subsystems and data formats.

NOAA 16 DEB was lifted into orbit during the mission ‘Titan II SLV | NOAA 16’, on board a Titan II SLV space rocket.

The launch took place on Sept. 21, 2000, 10:22 a.m. from Space Launch Complex 4W.

For more information about the launch, click the button.

Launch to space Titan II SLV | NOAA 16
Titan II SLV | NOAA 16

Agency: N/A

Status: Launch Successful

Launch date: Sept. 21, 2000, 10:22 a.m. UTC

Rocket: Titan II SLV

Launch pad: Space Launch Complex 4W

Location: Vandenberg SFB, CA, USA

...

Latest news about this satellite

There are no fresh news available about this satellite. Check back as we update our databases every day.


Newsletter sign-up

Weekly statistics, charts and insights to help you stay on top of the space industry.